Weather History for De Queen, AR

Change the Weather History Date:

Monday, February 4, 2013

  Actual Average Record
Temperature  
Mean Temperature 45 °F 43 °F  
Max Temperature 51 °F 56 °F 77 °F (2008)
Min Temperature 39 °F 30 °F 4 °F (1996)
Degree Days  
Heating Degree Days 20 22  
Month to date heating degree days 83 91  
Since 1 July heating degree days 1847 2027  
Cooling Degree Days 0 0  
Month to date cooling degree days 0 0  
Year to date cooling degree days 4 1  
Moisture  
Dew Point 44 °F    
Average Humidity 81    
Maximum Humidity 92    
Minimum Humidity 70    
Precipitation  
Precipitation 0.02 in 0.16 in 2.44 in (1986)
Month to date precipitation 0.02 0.64  
Year to date precipitation 2.02 3.96  
Snow  
Snow 0.00 in - - ()
Month to date snowfall 0.0  
Since 1 July snowfall 4.5  
Snow Depth 0.00 in    
Sea Level Pressure  
Sea Level Pressure 29.94 in    
Wind  
Wind Speed 3 mph (ENE)    
Max Wind Speed 12 mph    
Max Gust Speed 14 mph    
Visibility 7 miles    
Events Rain    
T = Trace of Precipitation, MM = Missing Value Source: NWS Daily Summary

Daily Weather History Graph

Daily Weather History Graph

Search for Another Location

Airport:

Trip Planner

Search our weather history database for the weather conditions in past years. The results will help you decide how hot, cold, wet, or windy it might be!

Date:

Astronomy

Feb. 04, 2013 Rise Set
Actual Time 7:12 AM CST 5:51 PM CST
Civil Twilight 6:46 AM CST 6:17 PM CST
Nautical Twilight 6:16 AM CST 6:47 PM CST
Astronomical Twilight 5:46 AM CST 7:16 PM CST
Moon 1:45 AM CST (2/4) 12:19 PM CST (2/4)
Length of Visible Light 11h 31m
Length of Day
10h 39m
Last Quarter, 37% of the Moon is Illuminated
Feb 4
Last Quarter
Feb 10
New
Feb 17
First Quarter
Feb 25
Full
Mar 4
Last Quarter

Hourly Weather History & Observations

Time (CST) Temp. Windchill Dew Point Humidity Pressure Visibility Wind Dir Wind Speed Gust Speed Precip Events Conditions
12:53 AM 43.0 °F - 36.0 °F 76% 30.02 in 10.0 mi Calm Calm - N/A   Clear
1:53 AM 43.0 °F - 34.0 °F 71% 29.99 in 10.0 mi Calm Calm - N/A   Clear
2:53 AM 41.0 °F - 34.0 °F 76% 30.00 in 10.0 mi Calm Calm - N/A   Clear
4:53 AM 42.1 °F 38.4 °F 36.0 °F 79% 29.98 in 10.0 mi ESE 5.8 mph - N/A   Overcast
5:53 AM 46.0 °F 43.9 °F 34.0 °F 63% 29.96 in 10.0 mi Variable 4.6 mph - 0.00 in Rain Light Rain
6:53 AM 44.1 °F 42.5 °F 39.0 °F 82% 29.98 in 6.0 mi North 3.5 mph - 0.01 in Rain Light Rain
7:53 AM 44.1 °F 42.5 °F 41.0 °F 89% 29.99 in 5.0 mi East 3.5 mph - 0.01 in Rain Light Rain
8:53 AM 45.0 °F 42.6 °F 43.0 °F 93% 30.00 in 8.0 mi ENE 4.6 mph - 0.00 in Rain Light Rain
9:53 AM 46.9 °F - 43.0 °F 86% 29.98 in 8.0 mi East 5.8 mph - 0.00 in   Overcast
10:33 AM 48.0 °F - 42.1 °F 80% 29.98 in 10.0 mi ESE 5.8 mph - 0.00 in   Overcast
10:53 AM 48.0 °F - 43.0 °F 83% 29.98 in 9.0 mi Calm Calm - 0.00 in Rain Light Rain
11:53 AM 48.9 °F - 44.1 °F 83% 29.96 in 6.0 mi East 3.5 mph - 0.00 in Rain Light Rain
12:46 PM 48.0 °F - 45.0 °F 89% 29.92 in 6.0 mi East 6.9 mph - 0.00 in Rain Light Rain
12:53 PM 48.9 °F - 45.0 °F 86% 29.91 in 7.0 mi East 5.8 mph - 0.00 in Rain Light Rain
1:02 PM 48.9 °F - 45.0 °F 86% 29.91 in 8.0 mi East 5.8 mph - 0.00 in   Overcast
1:53 PM 50.0 °F - 46.0 °F 86% 29.89 in 7.0 mi ENE 6.9 mph - 0.00 in   Overcast
2:05 PM 50.0 °F - 46.0 °F 86% 29.89 in 7.0 mi ENE 3.5 mph - N/A   Overcast
2:53 PM 50.0 °F - 46.9 °F 89% 29.88 in 8.0 mi East 5.8 mph - N/A   Overcast
3:46 PM 51.1 °F - 46.9 °F 86% 29.87 in 5.0 mi East 5.8 mph - N/A   Overcast
3:53 PM 51.1 °F - 46.9 °F 86% 29.87 in 4.0 mi ENE 4.6 mph - N/A   Overcast
4:53 PM 51.1 °F - 46.9 °F 86% 29.87 in 6.0 mi NE 4.6 mph - N/A   Overcast
5:29 PM 51.1 °F - 46.9 °F 86% 29.88 in 7.0 mi NE 5.8 mph - N/A   Overcast
5:53 PM 50.0 °F - 46.9 °F 89% 29.88 in 8.0 mi NE 3.5 mph - N/A   Overcast
6:53 PM 50.0 °F - 46.9 °F 89% 29.90 in 6.0 mi NE 5.8 mph - N/A   Overcast
7:53 PM 50.0 °F - 46.9 °F 89% 29.91 in 5.0 mi Calm Calm - N/A   Overcast
8:53 PM 50.0 °F - 46.9 °F 89% 29.92 in 5.0 mi East 3.5 mph - N/A   Overcast
9:12 PM 50.0 °F - 46.9 °F 89% 29.92 in 5.0 mi ESE 4.6 mph - N/A   Overcast
9:53 PM 50.0 °F - 46.9 °F 89% 29.93 in 4.0 mi Calm Calm - N/A   Overcast
10:53 PM 50.0 °F - 46.9 °F 89% 29.94 in 3.0 mi NNE 3.5 mph - N/A   Overcast
11:53 PM 50.0 °F - 48.0 °F 93% 29.94 in 3.0 mi Calm Calm - N/A   Overcast